Location: Goettingen
(51.5300°N, 9.9433°E)
Time: 04:41:12
(UTC+01:00)

ISS - Pass Details

Date: 29 November 2021
Orbit: 417 x 423 km, 51.6° (Epoch: 29 November)

Event Time Altitude Azimuth Distance (km) Brightness Sun altitude
Rises 18:39:58 0° 277° (W) 2,380 1.4 -21.5°
Reaches altitude 10° 18:42:05 10° 277° (W) 1,514 0.1 -21.8°
Enters shadow 18:44:55 59° 272° (W) 494 -3.2 -22.3°
